EW0214 Weather Reports


time (UTC)temp
C
wind
direction
speed
KPH
gust
KPH
rain 1hr
cm
rain 24hr
cm
rain mn
cm
humidity
%
barometer
mb
20260509034826 23 145 1.6 6.4 0.00 0.00 0.00 82 1010.1
20260509034319 23 144 0.0 3.2 0.00 0.00 0.00 82 1010.1
20260509033813 23 144 0.0 3.2 0.00 0.00 0.00 82 1010.1
20260509033307 23 144 0.0 1.6 0.00 0.00 0.00 82 1010.1
20260509032801 23 144 0.0 3.2 0.00 0.00 0.00 82 1010.1
20260509032255 23 144 0.0 3.2 0.00 0.00 0.00 82 1010.1
20260509031749 23 144 0.0 1.6 0.00 0.00 0.00 82 1010.0
20260509031242 23 144 1.6 6.4 0.00 0.00 0.00 82 1010.0
20260509030737 23 144 3.2 8.0 0.00 0.00 0.00 81 1010.0
20260509030231 23 142 3.2 8.0 0.00 0.00 0.00 81 1009.7
20260509025725 23 145 1.6 6.4 0.00 0.00 0.00 81 1009.7
20260509025220 23 146 3.2 6.4 0.00 0.00 0.00 81 1009.7
20260509024944 23 146 3.2 6.4 0.00 0.00 0.00 80 1009.7
20260509024206 23 148 1.6 4.8 0.00 0.00 0.00 80 1009.6
20260509023702 23 147 1.6 4.8 0.00 0.00 0.00 80 1009.7
20260509023428 24 147 1.6 4.8 0.00 0.00 0.00 79 1009.6
20260509022649 24 147 1.6 4.8 0.00 0.00 0.00 79 1009.6
20260509022143 24 147 3.2 8.0 0.00 0.00 0.00 79 1009.6
20260509021637 24 147 3.2 8.0 0.00 0.00 0.00 79 1009.4
20260509021131 24 117 1.6 6.4 0.00 0.00 0.00 79 1009.2
20260509020625 24 117 3.2 6.4 0.00 0.00 0.00 79 1009.2
20260509020119 24 136 4.8 9.7 0.00 0.00 0.00 79 1009.1
20260509015613 24 140 4.8 9.7 0.00 0.00 0.00 79 1009.0
20260509015107 24 154 3.2 8.0 0.00 0.00 0.00 78 1008.9
20260509014601 24 144 3.2 9.7 0.00 0.00 0.00 78 1008.9
20260509014055 25 140 4.8 9.7 0.00 0.00 0.00 78 1008.9
20260509013549 25 112 4.8 9.7 0.00 0.00 0.00 78 1008.9
20260509013043 25 137 3.2 11.3 0.00 0.00 0.00 78 1008.9
20260509012537 25 158 3.2 11.3 0.00 0.00 0.00 77 1008.9
20260509012037 25 142 3.2 9.7 0.00 0.00 0.00 77 1008.9
20260509011805 25 150 4.8 11.3 0.00 0.00 0.00 77 1008.9
20260509011039 25 138 4.8 11.3 0.00 0.00 0.00 76 1008.8
20260509011033 25 140 4.8 11.3 0.00 0.00 0.00 77 1008.8
20260509010035 25 150 4.8 11.3 0.00 0.00 0.00 76 1008.8
20260509005535 25 150 3.2 8.0 0.00 0.00 0.00 76 1008.7
20260509005034 25 136 3.2 8.0 0.00 0.00 0.00 76 1008.6
20260509004530 25 155 4.8 11.3 0.00 0.00 0.00 76 1008.7
20260509004030 25 159 4.8 11.3 0.00 0.00 0.00 75 1008.6
20260509003530 25 139 4.8 11.3 0.00 0.00 0.00 75 1008.6
20260509003301 25 182 4.8 11.3 0.00 0.00 0.00 75 1008.7
20260509002532 25 153 4.8 12.9 0.00 0.00 0.00 75 1008.7
20260509002029 25 153 4.8 12.9 0.00 0.00 0.00 75 1008.7
20260509001530 25 140 4.8 11.3 0.00 0.00 0.00 74 1008.7
20260509001303 26 166 4.8 11.3 0.00 0.00 0.00 74 1008.8
20260509000526 26 153 4.8 14.5 0.00 0.00 0.00 74 1008.9
20260509000026 26 146 4.8 14.5 0.00 0.00 0.00 74 1008.9
20260508235757 26 188 6.4 12.9 0.00 0.00 0.00 74 1008.8
20260508235026 26 180 6.4 16.1 0.00 0.00 0.00 74 1008.8
20260508234527 26 122 6.4 16.1 0.00 0.00 0.00 73 1008.8
20260508234026 26 148 6.4 12.9 0.00 0.00 0.00 73 1008.8
20260508233526 26 151 6.4 16.1 0.00 0.00 0.00 73 1008.8
20260508233026 26 150 4.8 16.1 0.00 0.00 0.00 73 1008.8
20260508232527 26 152 4.8 17.7 0.00 0.00 0.00 72 1008.7
20260508232023 26 140 6.4 17.7 0.00 0.00 0.00 72 1008.7
20260508231520 26 163 6.4 14.5 0.00 0.00 0.00 72 1008.7
20260508231021 26 137 4.8 11.3 0.00 0.00 0.00 72 1008.8
20260508230521 26 131 4.8 11.3 0.00 0.00 0.00 72 1008.8
20260508230020 26 150 6.4 14.5 0.00 0.00 0.00 72 1008.8
20260508225519 26 191 6.4 14.5 0.00 0.00 0.00 71 1008.8
20260508225020 26 142 4.8 9.7 0.00 0.00 0.00 71 1008.9
20260508224520 26 125 4.8 14.5 0.00 0.00 0.00 71 1008.8
20260508224020 26 149 4.8 14.5 0.00 0.00 0.00 70 1008.8
20260508223520 26 180 4.8 11.3 0.00 0.00 0.00 70 1008.8
20260508223015 26 162 4.8 14.5 0.00 0.00 0.00 70 1008.8
20260508222507 27 141 4.8 14.5 0.00 0.00 0.00 70 1008.8
20260508222002 26 117 4.8 14.5 0.00 0.00 0.00 71 1008.9
20260508221726 26 169 4.8 14.5 0.00 0.00 0.00 70 1008.9
20260508221221 26 173 4.8 11.3 0.00 0.00 0.00 70 1008.9
20260508220444 26 166 4.8 9.7 0.00 0.00 0.00 70 1009.0
20260508215938 27 152 4.8 12.9 0.00 0.00 0.00 70 1009.0
20260508215432 27 150 4.8 14.5 0.00 0.00 0.00 70 1009.0
20260508215159 27 188 4.8 14.5 0.00 0.00 0.00 70 1009.0
20260508214420 26 148 6.4 14.5 0.00 0.00 0.00 70 1009.0
20260508213914 26 169 4.8 14.5 0.00 0.00 0.00 70 1009.0
20260508213408 26 144 3.2 9.7 0.00 0.00 0.00 71 1009.1
20260508212901 26 150 4.8 14.5 0.00 0.00 0.00 70 1009.1
20260508212354 26 137 6.4 16.1 0.00 0.00 0.00 70 1009.3
20260508211849 26 153 4.8 16.1 0.00 0.00 0.00 70 1009.2
20260508211344 26 116 4.8 12.9 0.00 0.00 0.00 70 1009.3
20260508211338 26 145 4.8 12.9 0.00 0.00 0.00 69 1009.4
20260508210330 26 144 4.8 12.9 0.00 0.00 0.00 69 1009.6
20260508205824 26 96 4.8 12.9 0.00 0.00 0.00 69 1009.7
20260508205318 26 142 4.8 12.9 0.00 0.00 0.00 69 1009.7
20260508204812 27 167 4.8 12.9 0.00 0.00 0.00 68 1009.7
20260508204306 27 80 4.8 9.7 0.00 0.00 0.00 67 1009.7
20260508203800 27 133 6.4 16.1 0.00 0.00 0.00 68 1009.8
20260508203254 27 140 4.8 16.1 0.00 0.00 0.00 66 1009.8
20260508202748 27 113 3.2 12.9 0.00 0.00 0.00 67 1009.9
20260508202242 27 136 4.8 9.7 0.00 0.00 0.00 68 1009.9
20260508201736 27 135 4.8 14.5 0.00 0.00 0.00 67 1010.0
20260508201230 27 132 4.8 14.5 0.00 0.00 0.00 68 1010.0
20260508200724 27 142 4.8 14.5 0.00 0.00 0.00 67 1010.0
20260508200218 27 130 4.8 14.5 0.00 0.00 0.00 67 1010.2
20260508195712 27 36 4.8 14.5 0.00 0.00 0.00 67 1010.0
20260508195205 27 163 6.4 14.5 0.00 0.00 0.00 67 1010.1
20260508194700 27 134 4.8 14.5 0.00 0.00 0.00 66 1010.2
20260508194153 27 192 4.8 14.5 0.00 0.00 0.00 67 1010.3
20260508193648 27 134 4.8 11.3 0.00 0.00 0.00 69 1010.4
20260508193142 26 157 4.8 11.3 0.00 0.00 0.00 69 1010.4
20260508192636 26 59 4.8 11.3 0.00 0.00 0.00 69 1010.5
20260508192129 26 73 4.8 11.3 0.00 0.00 0.00 68 1010.7
20260508191855 26 153 4.8 11.3 0.00 0.00 0.00 68 1010.8
20260508191118 26 128 4.8 11.3 0.00 0.00 0.00 68 1010.9
20260508190614 26 126 4.8 11.3 0.00 0.00 0.00 68 1010.9
20260508190609 26 148 4.8 11.3 0.00 0.00 0.00 67 1010.8
20260508185606 26 136 4.8 12.9 0.00 0.00 0.00 67 1010.9
20260508185102 26 104 4.8 12.9 0.00 0.00 0.00 67 1011.0
20260508184603 26 57 4.8 11.3 0.00 0.00 0.00 68 1010.9
20260508184103 26 96 4.8 11.3 0.00 0.00 0.00 67 1011.0
20260508183602 26 133 4.8 11.3 0.00 0.00 0.00 68 1011.1
20260508183101 25 144 4.8 12.9 0.00 0.00 0.00 68 1011.2
20260508182830 25 135 4.8 12.9 0.00 0.00 0.00 68 1011.5
20260508182059 25 145 4.8 14.5 0.00 0.00 0.00 69 1011.6
20260508181603 25 133 6.4 12.9 0.00 0.00 0.00 67 1011.6
20260508181558 25 40 6.4 14.5 0.00 0.00 0.00 68 1011.5
20260508181215 25 163 4.8 12.9 0.00 0.00 0.00 67 1011.7
20260508180324 25 188 3.2 12.9 0.00 0.00 0.00 68 1011.7
20260508175553 25 135 4.8 12.9 0.00 0.00 0.00 66 1011.8
20260508175053 25 161 4.8 12.9 0.00 0.00 0.00 65 1011.8
20260508174554 26 143 3.2 9.7 0.00 0.00 0.00 64 1011.8
20260508174053 26 33 4.8 11.3 0.00 0.00 0.00 64 1011.8
20260508173554 26 152 3.2 11.3 0.00 0.00 0.00 64 1011.8
20260508173054 26 78 3.2 9.7 0.00 0.00 0.00 65 1011.8
20260508172822 26 346 1.6 6.4 0.00 0.00 0.00 64 1012.0
20260508172049 26 348 3.2 9.7 0.00 0.00 0.00 64 1012.1
20260508171550 26 347 3.2 9.7 0.00 0.00 0.00 66 1012.1
20260508171049 26 5 1.6 8.0 0.00 0.00 0.00 68 1012.0
20260508170550 25 351 1.6 8.0 0.00 0.00 0.00 68 1012.0
20260508170054 25 0 3.2 9.7 0.00 0.00 0.00 69 1012.1
20260508170049 25 355 3.2 9.7 0.00 0.00 0.00 69 1012.1
20260508165049 25 30 3.2 12.9 0.00 0.00 0.00 68 1012.2
20260508164548 24 15 3.2 12.9 0.00 0.00 0.00 70 1012.1
20260508164048 23 5 1.6 9.7 0.00 0.00 0.00 72 1012.2
20260508163551 23 98 0.0 4.8 0.00 0.00 0.00 73 1012.2
20260508163049 23 153 0.0 9.7 0.00 0.00 0.00 72 1012.3
20260508162549 22 153 1.6 9.7 0.00 0.00 0.00 72 1012.5
20260508162048 22 153 3.2 11.3 0.00 0.00 0.00 73 1012.6
20260508161550 22 134 3.2 11.3 0.00 0.00 0.00 73 1012.9
20260508161045 21 96 1.6 4.8 0.00 0.00 0.00 75 1012.9
20260508160546 21 96 0.0 4.8 0.00 0.00 0.00 74 1012.9
20260508160316 21 97 0.0 4.8 0.00 0.00 0.00 73 1013.0
20260508155545 21 97 1.6 4.8 0.00 0.00 0.00 73 1013.1
20260508155046 21 96 1.6 4.8 0.00 0.00 0.00 73 1013.2
20260508154545 21 95 1.6 4.8 0.00 0.00 0.00 74 1013.2
20260508154045 21 95 0.0 4.8 0.00 0.00 0.00 74 1013.3
20260508153545 20 96 0.0 4.8 0.00 0.00 0.00 74 1013.4
20260508153047 20 96 1.6 4.8 0.00 0.00 0.00 75 1013.3
20260508152545 20 94 1.6 4.8 0.00 0.00 0.00 75 1013.5
20260508152044 20 94 1.6 4.8 0.00 0.00 0.00 75 1013.5
20260508151546 20 94 1.6 4.8 0.00 0.00 0.00 75 1013.5
20260508151046 20 128 1.6 6.4 0.00 0.00 0.00 75 1013.6
20260508150545 20 127 3.2 6.4 0.00 0.00 0.00 75 1013.6
20260508150045 19 152 3.2 11.3 0.00 0.00 0.00 76 1013.7
20260508145545 19 148 3.2 11.3 0.00 0.00 0.00 75 1013.8
20260508145043 19 137 3.2 8.0 0.00 0.00 0.00 75 1013.8
20260508144543 19 135 4.8 9.7 0.00 0.00 0.00 76 1013.7
20260508144309 18 153 4.8 9.7 0.00 0.00 0.00 76 1013.7
20260508143531 18 144 3.2 8.0 0.00 0.00 0.00 76 1013.7
20260508143026 18 142 3.2 8.0 0.00 0.00 0.00 77 1013.7
20260508142520 18 142 4.8 9.7 0.00 0.00 0.00 77 1013.5
20260508142013 18 98 3.2 9.7 0.00 0.00 0.00 77 1013.5
20260508141507 18 161 3.2 8.0 0.00 0.00 0.00 78 1013.7
20260508141233 18 109 1.6 6.4 0.00 0.00 0.00 78 1013.8
20260508140455 17 94 1.6 6.4 0.00 0.00 0.00 78 1013.7
20260508140220 17 92 3.2 6.4 0.00 0.00 0.00 78 1013.8
20260508135444 17 34 3.2 6.4 0.00 0.00 0.00 78 1013.8
20260508134937 17 25 3.2 6.4 0.00 0.00 0.00 78 1013.8
20260508134431 17 16 1.6 6.4 0.00 0.00 0.00 79 1013.9
20260508133925 17 17 1.6 4.8 0.00 0.00 0.00 79 1014.0
20260508133419 17 14 1.6 4.8 0.00 0.00 0.00 79 1013.9
20260508132913 17 13 0.0 4.8 0.00 0.00 0.00 78 1014.0
20260508132407 17 13 0.0 3.2 0.00 0.00 0.00 79 1014.1
20260508131901 17 13 0.0 3.2 0.00 0.00 0.00 79 1014.2
20260508131356 17 13 0.0 3.2 0.00 0.00 0.00 79 1014.1
20260508130849 17 13 0.0 4.8 0.00 0.00 0.00 79 1013.7
20260508130343 17 13 0.0 4.8 0.00 0.00 0.00 78 1013.8
20260508125837 17 13 0.0 1.6 0.00 0.00 0.00 78 1013.8
20260508125331 17 13 0.0 3.2 0.00 0.00 0.00 78 1013.9
20260508124825 17 13 1.6 4.8 0.00 0.00 0.00 78 1014.0
20260508124319 17 13 1.6 4.8 0.00 0.00 0.00 78 1014.0
20260508123813 17 13 0.0 3.2 0.00 0.00 0.00 78 1014.2
20260508123538 17 13 0.0 3.2 0.00 0.00 0.00 78 1014.0
20260508122801 17 13 1.6 4.8 0.00 0.00 0.00 78 1013.9
20260508122255 17 13 1.6 4.8 0.00 0.00 0.00 78 1013.9
20260508121749 17 13 0.0 6.4 0.00 0.00 0.00 78 1013.9
20260508121245 17 13 0.0 6.4 0.00 0.00 0.00 78 1014.0
20260508120736 17 14 0.0 0.0 0.00 0.00 0.00 79 1014.2
20260508120231 17 14 0.0 0.0 0.00 0.00 0.00 78 1014.4
20260508115725 17 14 0.0 3.2 0.00 0.00 0.00 79 1014.4
20260508115219 17 14 0.0 3.2 0.00 0.00 0.00 79 1014.4
20260508114713 17 14 0.0 1.6 0.00 0.00 0.00 78 1014.5
20260508114208 17 14 0.0 1.6 0.00 0.00 0.00 78 1014.6
20260508113701 17 14 0.0 1.6 0.00 0.00 0.00 78 1014.5
20260508113426 17 14 0.0 0.0 0.00 0.00 0.00 78 1014.7
20260508112649 17 14 0.0 0.0 0.00 0.00 0.00 78 1014.6
20260508112145 17 14 0.0 1.6 0.00 0.00 0.00 78 1014.6
20260508112140 17 14 0.0 1.6 0.00 0.00 0.00 78 1014.5
20260508111132 16 14 0.0 3.2 0.00 0.00 0.00 78 1014.5
20260508110627 17 14 0.0 3.2 0.00 0.00 0.00 78 1014.4
20260508110622 16 14 0.0 0.0 0.00 0.00 0.00 78 1014.4
20260508105612 16 14 0.0 0.0 0.00 0.00 0.00 78 1014.4
20260508105107 16 14 0.0 1.6 0.00 0.00 0.00 78 1014.2
20260508104601 16 14 0.0 1.6 0.00 0.00 0.00 78 1014.1
20260508104055 16 14 0.0 3.2 0.00 0.00 0.00 78 1014.3
20260508103549 17 14 0.0 3.2 0.00 0.00 0.00 78 1014.5
20260508103043 16 14 0.0 3.2 0.00 0.00 0.00 78 1014.4
20260508102537 17 14 0.0 4.8 0.00 0.00 0.00 78 1014.5
20260508102031 16 14 0.0 4.8 0.00 0.00 0.00 78 1014.1
20260508101525 17 15 1.6 6.4 0.00 0.00 0.00 78 1014.3
20260508101019 17 15 1.6 6.4 0.00 0.00 0.00 78 1014.2
20260508100513 17 24 0.0 6.4 0.00 0.00 0.00 78 1014.2
20260508100007 17 51 0.0 3.2 0.00 0.00 0.00 78 1014.5
20260508095731 17 51 0.0 3.2 0.00 0.00 0.00 78 1014.3
20260508094954 17 51 1.6 4.8 0.00 0.00 0.00 78 1014.3
20260508094450 17 51 1.6 4.8 0.00 0.00 0.00 78 1014.2
20260508093943 17 51 0.0 4.8 0.00 0.00 0.00 78 1014.4
20260508093438 17 51 0.0 4.8 0.00 0.00 0.00 78 1014.5
20260508092932 17 52 0.0 1.6 0.00 0.00 0.00 78 1014.7
20260508092425 17 52 0.0 3.2 0.00 0.00 0.00 77 1014.7
20260508091921 17 52 0.0 3.2 0.00 0.00 0.00 77 1014.6
20260508091915 17 53 0.0 1.6 0.00 0.00 0.00 77 1014.5
20260508090907 17 53 0.0 1.6 0.00 0.00 0.00 77 1014.4
20260508090401 17 53 0.0 1.6 0.00 0.00 0.00 77 1014.2
20260508085856 17 53 0.0 0.0 0.00 0.00 0.00 77 1013.9
20260508085348 17 53 0.0 0.0 0.00 0.00 0.00 77 1013.9
20260508084846 17 53 0.0 0.0 0.00 0.00 0.00 77 1013.9
20260508084346 17 53 0.0 0.0 0.00 0.00 0.00 77 1014.2
20260508083846 17 53 0.0 0.0 0.00 0.00 0.00 76 1014.1
20260508083345 17 53 0.0 0.0 0.00 0.00 0.00 76 1014.1
20260508082845 17 53 0.0 0.0 0.00 0.00 0.00 76 1014.2
20260508082343 17 53 0.0 0.0 0.00 0.00 0.00 76 1014.2
20260508081841 17 53 0.0 0.0 0.00 0.00 0.00 76 1014.5
20260508081344 17 53 0.0 0.0 0.00 0.00 0.00 76 1014.3
20260508081113 17 53 0.0 0.0 0.00 0.00 0.00 76 1014.3
20260508080341 17 53 0.0 1.6 0.00 0.00 0.00 76 1014.4
20260508080112 17 53 0.0 3.2 0.00 0.00 0.00 76 1014.5
20260508075343 16 53 0.0 3.2 0.00 0.00 0.00 76 1014.2
20260508075110 16 53 0.0 0.0 0.00 0.00 0.00 76 1014.1
20260508074337 16 53 0.0 0.0 0.00 0.00 0.00 76 1014.3
20260508073843 16 53 0.0 1.6 0.00 0.00 0.00 76 1014.4
20260508073838 16 53 0.0 1.6 0.00 0.00 0.00 76 1014.3
20260508072839 16 52 0.0 3.2 0.00 0.00 0.00 76 1014.3
20260508072337 16 52 1.6 4.8 0.00 0.00 0.00 76 1014.3
20260508071838 16 51 1.6 4.8 0.00 0.00 0.00 76 1014.1
20260508071339 16 52 1.6 4.8 0.00 0.00 0.00 76 1014.3
20260508070839 16 53 1.6 6.4 0.00 0.00 0.00 76 1014.5
20260508070335 16 53 1.6 6.4 0.00 0.00 0.00 76 1014.3
20260508065835 16 53 1.6 6.4 0.00 0.00 0.00 77 1014.3
20260508065335 16 55 0.0 0.0 0.00 0.00 0.00 77 1014.6
20260508064834 16 55 0.0 0.0 0.00 0.00 0.00 77 1014.7
20260508064335 16 55 0.0 0.0 0.00 0.00 0.00 76 1014.8
20260508063833 16 55 0.0 0.0 0.00 0.00 0.00 76 1014.9
20260508063335 16 55 0.0 0.0 0.00 0.00 0.00 76 1015.0
20260508062833 16 55 0.0 0.0 0.00 0.00 0.00 76 1015.4
20260508062335 16 55 0.0 0.0 0.00 0.00 0.00 76 1015.3
20260508061833 16 55 0.0 0.0 0.00 0.00 0.00 76 1015.2
20260508061335 16 55 0.0 0.0 0.00 0.00 0.00 76 1015.3
20260508060834 16 55 0.0 0.0 0.00 0.00 0.00 76 1015.2
20260508060334 16 55 0.0 0.0 0.00 0.00 0.00 75 1015.2
20260508060105 16 55 0.0 0.0 0.00 0.00 0.00 75 1015.0
20260508055334 16 55 0.0 0.0 0.00 0.00 0.00 75 1014.9
20260508054831 16 55 0.0 0.0 0.00 0.00 0.00 75 1015.0
20260508054331 16 55 0.0 0.0 0.00 0.00 0.00 75 1015.2
20260508053827 16 55 0.0 0.0 0.00 0.00 0.00 75 1015.2
20260508053327 16 55 0.0 0.0 0.00 0.00 0.00 75 1015.4
20260508052823 16 55 0.0 0.0 0.00 0.00 0.00 75 1015.2
20260508052552 17 55 0.0 0.0 0.00 0.00 0.00 74 1015.1
20260508051820 16 55 0.0 0.0 0.00 0.00 0.00 75 1015.1
20260508051547 16 55 0.0 0.0 0.00 0.00 0.00 74 1015.0
20260508050818 16 55 0.0 3.2 0.00 0.00 0.00 74 1014.8
20260508050547 17 55 1.6 3.2 0.00 0.00 0.00 74 1014.8
20260508045814 17 55 1.6 3.2 0.00 0.00 0.00 74 1015.0
20260508045313 17 55 0.0 3.2 0.00 0.00 0.00 74 1015.2
20260508044812 17 55 0.0 4.8 0.00 0.00 0.00 74 1015.3
20260508044312 17 55 1.6 4.8 0.00 0.00 0.00 73 1016.0
20260508044041 17 56 1.6 4.8 0.00 0.00 0.00 73 1015.4
20260508043311 17 57 1.6 4.8 0.00 0.00 0.00 73 1014.4
20260508042811 17 55 0.0 4.8 0.00 0.00 0.00 73 1014.4
20260508042312 17 55 0.0 4.8 0.00 0.00 0.00 73 1015.0
20260508041811 17 55 1.6 4.8 0.00 0.00 0.00 73 1014.9
20260508041312 17 55 0.0 3.2 0.00 0.00 0.00 73 1015.1
20260508040811 17 55 0.0 1.6 0.00 0.00 0.00 73 1015.2
20260508040310 17 55 0.0 4.8 0.00 0.00 0.00 72 1015.4
20260508035809 17 55 0.0 4.8 0.00 0.00 0.00 72 1015.5
20260508035539 17 55 0.0 4.8 0.00 0.00 0.00 72 1015.6